Regional Weather Roundup
Issued by NWS Sterling, VA

Home | Current Version | Previous Version | Text Only | Print | Product List | Glossary On
Versions: 1 2 3 4 5 6 7 8 9 10 11 12 13 14 15 16 17 18 19 20 21 22 23 24 25 26 27 28 29 30 31 32 33 34 35 36 37 38 39 40 41 42 43 44 45 46 47 48 49 50
000
ASUS41 KLWX 260010
RWRLWX

REGIONAL WEATHER ROUNDUP
NATIONAL WEATHER SERVICE BALTIMORE MD/WASHINGTON DC
800 PM EDT SUN SEP 25 2016

Note: "FAIR" indicates few or no clouds below 12,000 feet
with no significant weather and/or obstructions to visibility.
 TC=TEMPERATURE CELSIUS

 * =Non NWS site. Station does not report precipitation (e.g. rain,
    snow, etc.), thunder, or fog.

DCZ001-MDZ009-015-VAZ040>042-051-053>054-260100-
WASHINGTON METRO

CITY           SKY/WX    TMP DP  RH WIND       PRES   REMARKS
WASHINGTON NAT MOCLDY    67  52  58 VRB6      30.16R
DULLES         PTCLDY    63  51  65 CALM      30.15S
ANDREWS AFB    CLEAR     60  50  68 SE5       30.15S
FT BELVOIR     MOCLDY    60  55  84 SE1       30.15S
QUANTICO         N/A     65  60  84 NW6       30.16S
COLLEGE PARK*  CLEAR     64  45  48 CALM      30.15S
LEESBURG*      CLEAR     64  55  72 CALM      30.16R
MANASSAS*      PTCLDY    63  57  82 CALM      30.16S
GAITHERSBURG*  CLEAR     61  46  59 CALM      30.19R

$$

MDZ006>007-011-014-260100-
BALTIMORE METRO

CITY           SKY/WX    TMP DP  RH WIND       PRES   REMARKS
BWI AIRPORT    PTCLDY    62  47  57 SE3       30.15R
MD SCIENCE CTR   N/A     68  45  43 MISG      30.16R
MARTIN STATE   PTCLDY    63  55  77 CALM      30.17S
ANNAPOLIS      CLEAR     65  51  60 CALM      30.15S
FORT MEADE*    CLEAR     55  52  88 CALM      30.18R

$$

MDZ012-015-019>023-260100-
MARYLAND EASTERN SHORE

CITY           SKY/WX    TMP DP  RH WIND       PRES   REMARKS
OCEAN CITY     CLEAR     61  53  75 CALM      30.16S
SALISBURY      CLEAR     60  56  86 E3        30.16S
BAY BRIDGE AP* CLEAR     63  52  67 MISG      30.15S
CAMBRIDGE*     PTCLDY    59  52  77 CALM      30.16R
EASTON*        CLEAR     63  50  63 CALM      30.19F

$$

MDZ017>025-260100-
SOUTHERN MARYLAND

CITY           SKY/WX    TMP DP  RH WIND       PRES   REMARKS
PATUXENT RIVER CLEAR     59  53  80 SW3       30.15S
ST INIGOES     CLEAR     59  53  80 CALM      30.15R
LEONARDTOWN*   CLEAR     57  50  77 CALM      30.17S

$$

MDZ003>005-260100-
NORTH CENTRAL MARYLAND

CITY           SKY/WX    TMP DP  RH WIND       PRES   REMARKS
FREDERICK*     NOT AVBL
HAGERSTOWN APT CLEAR     68  49  50 S7        30.13S

$$

MDZ501>502-260100-
WESTERN MARYLAND

CITY           SKY/WX    TMP DP  RH WIND       PRES   REMARKS
OAKLAND*       CLEAR     57  45  62 SE7       30.18R
CUMBERLAND*    CLEAR     68  46  45 CALM      30.16R

$$

VAZ025>031-260100-
SHENANDOAH VALLEY

CITY           SKY/WX    TMP DP  RH WIND       PRES   REMARKS
WINCHESTER*    CLEAR     59  52  77 CALM      30.15S
FRONT ROYAL*   FAIR      59  55  88 CALM      30.14R
LURAY*         CLOUDY    64  59  82 CALM      30.16R
NEW MARKET*    CLOUDY   N/A N/A N/A CALM      30.14S
STAUNTON*      CLOUDY    63  58  85 CALM      30.18S
WAYNESBORO*    CLOUDY    62  58  86 CALM      30.17R

$$

WVZ021-048>050-054>055-260100-
EASTERN WEST VIRGINIA PANHANDLE

CITY           SKY/WX    TMP DP  RH WIND       PRES   REMARKS
MARTINSBURG    CLEAR     62  53  72 S5        30.14R
PETERSBURG*    CLEAR     68  57  66 CALM      30.12R

$$

VAZ036>039-050-260100-
CENTRAL FOOTHILLS

CITY           SKY/WX    TMP DP  RH WIND       PRES   REMARKS
CHARLOTTESVILL MOCLDY    63  58  83 CALM      30.16R
CULPEPER*      CLOUDY    60  57  89 CALM      30.17S
ORANGE*          N/A     64  59  82 CALM      30.18R
GORDONSVILLE*  NOT AVBL
WARRENTON*     MOCLDY    58  51  77 CALM      30.15S

$$

VAZ055>057-260100-
NORTH AND CENTRAL PIEDMONT

CITY           SKY/WX    TMP DP  RH WIND       PRES   REMARKS
FREDERICKSBRG* CLEAR     63  61  94 CALM      30.15R
STAFFORD*      PTCLDY    58  58 100 CALM      30.19S

$$

NCZ024-NYZ072-PAZ021-071-VAZ022-071-260100-
OTHER REGIONAL OBSERVATIONS

CITY           SKY/WX    TMP DP  RH WIND       PRES   REMARKS
NEW YORK CITY  CLEAR     63  36  36 CALM      30.17S
PHILADELPHIA   PTCLDY    70  40  33 NW7       30.16R
PITTSBURGH     MOCLDY    69  46  43 NE5       30.11R
ROANOKE        CLOUDY    68  61  78 SE8       30.16S
RICHMOND       CLOUDY    68  60  75 CALM      30.15R
RALEIGH        CLOUDY    71  65  81 E5        30.13R

$$

ANZ530>537-260100-
MARINE OBSERVATIONS

STATION/POSITION TIME  TEMP    WIND        PRES
                       AIR SEA DIR/SP/G
                 (UTC) (F)     (DEG/KT/KT) (MB)
THOMAS PT LIGHT  0000   69 75  120/  5/  6 1022.4S
BALT KEY BRIDGE  2342           90/  6/  7 1020.8S
COVE POINT       2342           70/  5/  7 1021.6F
LEWISETTA        2342      75  190/  3/  4 1020.8R
SOLOMONS ISLAND  2342      77   10/  3/  4   N/A
PINEY POINT      2342           80/  4/  5   N/A

$$




USA.gov is the U.S. government's official web portal to all federal, state and local government web resources and services.